Time,TemperatureF,DewpointF,PressureIn,WindDirection,WindDirectionDegrees,WindSpeedMPH,WindSpeedGustMPH,Humidity,HourlyPrecipIn,Conditions,Clouds,dailyrainin,SoftwareType,DateUTC
2014-01-07 00:13:00,13.1,9.2,30.31,NW,315,0.0,-999.0,84,-99.99,,,0.00,Acu-Link.com,2014-01-07 06:13:00,
2014-01-07 00:28:00,13.3,9.1,30.32,NW,315,0.0,-999.0,83,-99.99,,,0.00,Acu-Link.com,2014-01-07 06:28:00,
2014-01-07 00:43:00,13.3,9.4,30.32,North,0,0.0,-999.0,84,-99.99,,,0.00,Acu-Link.com,2014-01-07 06:43:00,
2014-01-07 00:58:00,13.5,8.5,30.31,WNW,292,1.7,-999.0,80,-99.99,,,0.00,Acu-Link.com,2014-01-07 06:58:00,
2014-01-07 01:13:00,15.1,7.7,30.31,NE,45,3.7,-999.0,72,-99.99,,,0.00,Acu-Link.com,2014-01-07 07:13:00,
2014-01-07 01:28:00,16.2,7.2,30.30,WNW,292,4.2,-999.0,67,-99.99,,,0.00,Acu-Link.com,2014-01-07 07:28:00,
2014-01-07 01:44:00,16.7,6.7,30.31,NW,315,2.7,-999.0,64,-99.99,,,0.00,Acu-Link.com,2014-01-07 07:44:00,
2014-01-07 01:59:00,17.1,6.0,30.31,West,270,3.7,-999.0,61,-99.99,,,0.00,Acu-Link.com,2014-01-07 07:59:00,
2014-01-07 02:14:00,17.4,5.2,30.32,NW,315,4.2,-999.0,58,-99.99,,,0.00,Acu-Link.com,2014-01-07 08:14:00,
2014-01-07 02:29:00,17.6,4.6,30.32,NNE,22,6.3,-999.0,56,-99.99,,,0.00,Acu-Link.com,2014-01-07 08:29:00,
2014-01-07 02:44:00,17.4,4.8,30.32,NNE,22,2.7,-999.0,57,-99.99,,,0.00,Acu-Link.com,2014-01-07 08:44:00,
2014-01-07 02:59:00,17.2,5.4,30.33,NE,45,1.7,-999.0,59,-99.99,,,0.00,Acu-Link.com,2014-01-07 08:59:00,
2014-01-07 03:14:00,17.1,5.6,30.33,NW,315,4.7,-999.0,60,-99.99,,,0.00,Acu-Link.com,2014-01-07 09:14:00,
2014-01-07 03:29:00,16.9,4.7,30.35,NE,45,4.2,-999.0,58,-99.99,,,0.00,Acu-Link.com,2014-01-07 09:29:00,
2014-01-07 03:44:00,16.3,4.9,30.34,North,0,3.2,-999.0,60,-99.99,,,0.00,Acu-Link.com,2014-01-07 09:44:00,
2014-01-07 03:59:00,15.6,6.0,30.34,ENE,67,2.2,-999.0,65,-99.99,,,0.00,Acu-Link.com,2014-01-07 09:59:00,
2014-01-07 04:15:00,14.9,5.6,30.33,ENE,67,2.2,-999.0,66,-99.99,,,0.00,Acu-Link.com,2014-01-07 10:15:00,
2014-01-07 04:30:00,14.4,5.1,30.34,North,0,2.2,-999.0,66,-99.99,,,0.00,Acu-Link.com,2014-01-07 10:30:00,
2014-01-07 04:45:00,14.2,4.6,30.34,NE,45,1.7,-999.0,65,-99.99,,,0.00,Acu-Link.com,2014-01-07 10:45:00,
2014-01-07 05:00:00,14.2,5.0,30.34,ESE,112,0.0,-999.0,66,-99.99,,,0.00,Acu-Link.com,2014-01-07 11:00:00,
2014-01-07 05:30:00,13.5,4.0,30.35,East,90,1.7,-999.0,65,-99.99,,,0.00,Acu-Link.com,2014-01-07 11:30:00,
2014-01-07 05:45:00,13.3,3.4,30.35,ENE,67,0.0,-999.0,64,-99.99,,,0.00,Acu-Link.com,2014-01-07 11:45:00,
2014-01-07 06:00:00,12.6,3.4,30.36,NE,45,0.0,-999.0,66,-99.99,,,0.00,Acu-Link.com,2014-01-07 12:00:00,
2014-01-07 06:15:00,12.6,4.4,30.36,NE,45,2.7,-999.0,69,-99.99,,,0.00,Acu-Link.com,2014-01-07 12:15:00,
2014-01-07 06:31:00,12.9,4.4,30.37,East,90,0.0,-999.0,68,-99.99,,,0.00,Acu-Link.com,2014-01-07 12:31:00,
2014-01-07 06:46:00,12.0,3.8,30.38,NE,45,1.1,-999.0,69,-99.99,,,0.00,Acu-Link.com,2014-01-07 12:46:00,
2014-01-07 07:01:00,11.8,3.9,30.37,East,90,1.7,-999.0,70,-99.99,,,0.00,Acu-Link.com,2014-01-07 13:01:00,
2014-01-07 07:16:00,11.7,4.1,30.38,East,90,3.2,-999.0,71,-99.99,,,0.00,Acu-Link.com,2014-01-07 13:16:00,
2014-01-07 07:31:00,12.4,4.5,30.38,ENE,67,1.7,-999.0,70,-99.99,,,0.00,Acu-Link.com,2014-01-07 13:31:00,
2014-01-07 07:46:00,12.9,3.7,30.38,North,0,1.1,-999.0,66,-99.99,,,0.00,Acu-Link.com,2014-01-07 13:46:00,
2014-01-07 08:01:00,14.0,3.8,30.38,NE,45,2.7,-999.0,63,-99.99,,,0.00,Acu-Link.com,2014-01-07 14:01:00,
2014-01-07 08:16:00,15.4,4.4,30.38,NNE,22,1.7,-999.0,61,-99.99,,,0.00,Acu-Link.com,2014-01-07 14:16:00,
2014-01-07 08:31:00,15.3,2.8,30.39,SE,135,1.1,-999.0,57,-99.99,,,0.00,Acu-Link.com,2014-01-07 14:31:00,
2014-01-07 08:47:00,17.1,2.1,30.40,ENE,67,2.2,-999.0,51,-99.99,,,0.00,Acu-Link.com,2014-01-07 14:47:00,
2014-01-07 09:02:00,17.8,4.0,30.41,NNE,22,1.7,-999.0,54,-99.99,,,0.00,Acu-Link.com,2014-01-07 15:02:00,
2014-01-07 09:17:00,16.9,2.8,30.40,NNE,22,2.7,-999.0,53,-99.99,,,0.00,Acu-Link.com,2014-01-07 15:17:00,
2014-01-07 09:32:00,18.1,2.6,30.41,NE,45,4.2,-999.0,50,-99.99,,,0.00,Acu-Link.com,2014-01-07 15:32:00,
2014-01-07 09:47:00,17.6,1.7,30.41,NW,315,3.7,-999.0,49,-99.99,,,0.00,Acu-Link.com,2014-01-07 15:47:00,
2014-01-07 10:02:00,18.9,1.6,30.41,SE,135,0.0,-999.0,46,-99.99,,,0.00,Acu-Link.com,2014-01-07 16:02:00,
2014-01-07 10:17:00,19.9,2.5,30.40,ENE,67,1.1,-999.0,46,-99.99,,,0.00,Acu-Link.com,2014-01-07 16:17:00,
2014-01-07 10:32:00,21.4,2.9,30.39,NNW,337,4.7,-999.0,44,-99.99,,,0.00,Acu-Link.com,2014-01-07 16:32:00,
2014-01-07 10:47:00,22.5,3.9,30.39,NE,45,2.7,-999.0,44,-99.99,,,0.00,Acu-Link.com,2014-01-07 16:47:00,
2014-01-07 11:03:00,21.4,2.9,30.37,WNW,292,1.7,-999.0,44,-99.99,,,0.00,Acu-Link.com,2014-01-07 17:03:00,
2014-01-07 11:18:00,21.6,3.1,30.37,NNW,337,2.7,-999.0,44,-99.99,,,0.00,Acu-Link.com,2014-01-07 17:18:00,
2014-01-07 11:33:00,23.4,4.7,30.36,SSW,202,0.0,-999.0,44,-99.99,,,0.00,Acu-Link.com,2014-01-07 17:33:00,
2014-01-07 11:48:00,22.8,3.2,30.35,NNW,337,4.7,-999.0,42,-99.99,,,0.00,Acu-Link.com,2014-01-07 17:48:00,
2014-01-07 12:03:00,25.3,4.4,30.34,ENE,67,2.7,-999.0,40,-99.99,,,0.00,Acu-Link.com,2014-01-07 18:03:00,
2014-01-07 12:18:00,25.2,3.8,30.33,WSW,247,4.2,-999.0,39,-99.99,,,0.00,Acu-Link.com,2014-01-07 18:18:00,
2014-01-07 12:33:00,25.0,4.1,30.32,NE,45,2.7,-999.0,40,-99.99,,,0.00,Acu-Link.com,2014-01-07 18:33:00,
2014-01-07 12:48:00,25.5,4.6,30.32,WNW,292,2.2,-999.0,40,-99.99,,,0.00,Acu-Link.com,2014-01-07 18:48:00,
2014-01-07 13:03:00,26.6,5.0,30.31,WNW,292,2.7,-999.0,39,-99.99,,,0.00,Acu-Link.com,2014-01-07 19:03:00,
2014-01-07 13:19:00,27.5,6.4,30.31,NW,315,3.2,-999.0,40,-99.99,,,0.00,Acu-Link.com,2014-01-07 19:19:00,
2014-01-07 13:34:00,28.6,6.3,30.31,SSE,157,2.7,-999.0,38,-99.99,,,0.00,Acu-Link.com,2014-01-07 19:34:00,
2014-01-07 13:49:00,30.0,8.1,30.31,WNW,292,2.2,-999.0,39,-99.99,,,0.00,Acu-Link.com,2014-01-07 19:49:00,
2014-01-07 14:04:00,28.6,7.9,30.30,NW,315,4.7,-999.0,41,-99.99,,,0.00,Acu-Link.com,2014-01-07 20:04:00,
2014-01-07 14:19:00,29.8,9.0,30.30,NNE,22,3.2,-999.0,41,-99.99,,,0.00,Acu-Link.com,2014-01-07 20:19:00,
2014-01-07 14:34:00,31.1,9.1,30.30,NE,45,2.7,-999.0,39,-99.99,,,0.00,Acu-Link.com,2014-01-07 20:34:00,
2014-01-07 14:49:00,32.0,9.9,30.30,WSW,247,4.2,-999.0,39,-99.99,,,0.00,Acu-Link.com,2014-01-07 20:49:00,
2014-01-07 15:04:00,29.8,8.5,30.30,NE,45,1.1,-999.0,40,-99.99,,,0.00,Acu-Link.com,2014-01-07 21:04:00,
2014-01-07 15:19:00,31.1,8.5,30.29,SW,225,3.7,-999.0,38,-99.99,,,0.00,Acu-Link.com,2014-01-07 21:19:00,
2014-01-07 15:35:00,32.9,9.5,30.30,SSW,202,2.7,-999.0,37,-99.99,,,0.00,Acu-Link.com,2014-01-07 21:35:00,
2014-01-07 15:50:00,33.6,11.3,30.29,SSW,202,2.2,-999.0,39,-99.99,,,0.00,Acu-Link.com,2014-01-07 21:50:00,
2014-01-07 16:05:00,31.8,9.7,30.28,SSW,202,4.2,-999.0,39,-99.99,,,0.00,Acu-Link.com,2014-01-07 22:05:00,
2014-01-07 16:20:00,32.2,9.5,30.28,SSW,202,2.2,-999.0,38,-99.99,,,0.00,Acu-Link.com,2014-01-07 22:20:00,
2014-01-07 16:35:00,31.3,9.2,30.28,SSW,202,2.2,-999.0,39,-99.99,,,0.00,Acu-Link.com,2014-01-07 22:35:00,
2014-01-07 16:50:00,32.0,9.3,30.27,NW,315,0.0,-999.0,38,-99.99,,,0.00,Acu-Link.com,2014-01-07 22:50:00,
2014-01-07 17:06:00,28.9,11.7,30.27,South,180,0.0,-999.0,48,-99.99,,,0.00,Acu-Link.com,2014-01-07 23:06:00,
2014-01-07 17:21:00,28.0,11.3,30.26,NE,45,0.0,-999.0,49,-99.99,,,0.00,Acu-Link.com,2014-01-07 23:21:00,
2014-01-07 17:36:00,26.2,12.3,30.24,SSE,157,0.0,-999.0,55,-99.99,,,0.00,Acu-Link.com,2014-01-07 23:36:00,
2014-01-07 17:51:00,25.0,13.1,30.24,East,90,0.0,-999.0,60,-99.99,,,0.00,Acu-Link.com,2014-01-07 23:51:00,
2014-01-07 18:06:00,23.7,13.3,30.24,NNW,337,0.0,-999.0,64,-99.99,,,0.00,Acu-Link.com,2014-01-08 00:06:00,
2014-01-07 18:21:00,23.2,14.2,30.24,NNE,22,0.0,-999.0,68,-99.99,,,0.00,Acu-Link.com,2014-01-08 00:21:00,
2014-01-07 18:36:00,22.3,14.3,30.23,SW,225,0.0,-999.0,71,-99.99,,,0.00,Acu-Link.com,2014-01-08 00:36:00,
2014-01-07 18:51:00,21.7,14.4,30.23,NW,315,0.0,-999.0,73,-99.99,,,0.00,Acu-Link.com,2014-01-08 00:51:00,
2014-01-07 19:06:00,21.6,14.6,30.24,NW,315,0.0,-999.0,74,-99.99,,,0.00,Acu-Link.com,2014-01-08 01:06:00,
2014-01-07 19:23:00,20.3,13.4,30.24,SSE,157,0.0,-999.0,74,-99.99,,,0.00,Acu-Link.com,2014-01-08 01:23:00,
2014-01-07 19:38:00,20.3,14.8,30.24,SSE,157,0.0,-999.0,79,-99.99,,,0.00,Acu-Link.com,2014-01-08 01:38:00,
2014-01-07 19:54:00,19.9,14.5,30.24,SW,225,0.0,-999.0,79,-99.99,,,0.00,Acu-Link.com,2014-01-08 01:54:00,
2014-01-07 20:09:00,19.0,14.1,30.24,SSW,202,0.0,-999.0,81,-99.99,,,0.00,Acu-Link.com,2014-01-08 02:09:00,
2014-01-07 20:24:00,18.9,14.1,30.24,SW,225,0.0,-999.0,81,-99.99,,,0.00,Acu-Link.com,2014-01-08 02:24:00,
2014-01-07 20:39:00,18.7,14.4,30.24,SW,225,0.0,-999.0,83,-99.99,,,0.00,Acu-Link.com,2014-01-08 02:39:00,
2014-01-07 20:55:00,18.3,14.3,30.24,SW,225,0.0,-999.0,84,-99.99,,,0.00,Acu-Link.com,2014-01-08 02:55:00,
2014-01-07 21:10:00,17.8,14.1,30.25,East,90,0.0,-999.0,85,-99.99,,,0.00,Acu-Link.com,2014-01-08 03:10:00,
2014-01-07 21:25:00,17.6,13.3,30.24,South,180,0.0,-999.0,83,-99.99,,,0.00,Acu-Link.com,2014-01-08 03:25:00,
2014-01-07 21:40:00,16.7,12.7,30.24,NE,45,0.0,-999.0,84,-99.99,,,0.00,Acu-Link.com,2014-01-08 03:40:00,
2014-01-07 21:55:00,17.6,14.4,30.23,SW,225,0.0,-999.0,87,-99.99,,,0.00,Acu-Link.com,2014-01-08 03:55:00,
2014-01-07 22:10:00,17.8,14.9,30.23,West,270,0.0,-999.0,88,-99.99,,,0.00,Acu-Link.com,2014-01-08 04:10:00,
2014-01-07 22:25:00,17.2,14.5,30.22,West,270,0.0,-999.0,89,-99.99,,,0.00,Acu-Link.com,2014-01-08 04:25:00,
2014-01-07 22:40:00,17.1,14.4,30.22,West,270,0.0,-999.0,89,-99.99,,,0.00,Acu-Link.com,2014-01-08 04:40:00,
2014-01-07 22:55:00,16.9,14.7,30.22,West,270,0.0,-999.0,91,-99.99,,,0.00,Acu-Link.com,2014-01-08 04:55:00,
2014-01-07 23:11:00,16.2,13.8,30.21,NNW,337,0.0,-999.0,90,-99.99,,,0.00,Acu-Link.com,2014-01-08 05:11:00,
2014-01-07 23:26:00,16.3,13.9,30.21,SSW,202,0.0,-999.0,90,-99.99,,,0.00,Acu-Link.com,2014-01-08 05:26:00,
2014-01-07 23:41:00,16.9,14.5,30.20,SSE,157,0.0,-999.0,90,-99.99,,,0.00,Acu-Link.com,2014-01-08 05:41:00,
2014-01-07 23:56:00,16.9,14.0,30.21,SW,225,0.0,-999.0,88,-99.99,,,0.00,Acu-Link.com,2014-01-08 05:56:00,